contact:dominique.lefevre@mio.osupytheas.fr, maurice.libes@osupytheas.fr, didier.mallarino@osupytheas.fr
Project:EMSO http://www.emso-fr.org/EMSO-France
Depth: 2436.0 m
Title:EMSO Ligure Ouest : Data MII capteur AQUADOPP
Date,Latitude,Longitude,X_East,Y_North,Z_Up,Amplitude_X,Amplitude_Y,Amplitude_Z,Batterie,SoundSpeed,Heading,Pitch,Roll,Pressure,TIS,Speed,Direction
, degrees North, degrees East, m.s-1, m.s-1,m.s-1, 1, 1, 1, Volt, m.s-1, degree, degree, degree, dbar, degree_C, m.s-1, degree
2021-04-13T00:04:03,42.805,6.029,-0.027,-0.024,-0.011,107.0,105.0,103.0,13.4,1505.2,328.0,-0.8,1.8,2469.381,13.28,0.036,228.4
2021-04-13T00:07:03,42.805,6.029,-0.022,-0.057,-0.01,107.0,106.0,103.0,13.3,1505.2,327.9,-0.7,1.8,2469.331,13.28,0.061,201.1
2021-04-13T00:10:03,42.805,6.029,-0.016,-0.019,-0.004,107.0,106.0,103.0,13.4,1505.2,327.1,-0.8,1.8,2469.364,13.28,0.024,220.1
2021-04-13T00:13:03,42.805,6.029,-0.018,-0.041,0.006,107.0,106.0,103.0,13.4,1505.2,329.0,-0.8,1.8,2469.35,13.28,0.044,203.7
2021-04-13T00:16:03,42.805,6.029,-0.007,-0.032,0.013,106.0,107.0,102.0,13.4,1505.2,329.0,-0.8,1.8,2469.36,13.28,0.032,192.3
2021-04-13T00:19:03,42.805,6.029,-0.021,-0.025,0.003,108.0,106.0,103.0,13.4,1505.2,328.7,-0.7,1.8,2469.344,13.28,0.032,220.0
2021-04-13T00:22:03,42.805,6.029,-0.019,-0.021,0.004,106.0,106.0,105.0,13.4,1505.2,325.6,-0.7,1.8,2469.295,13.28,0.028,222.1
2021-04-13T00:25:03,42.805,6.029,-0.027,-0.009,-0.002,108.0,106.0,103.0,13.4,1505.2,324.4,-0.8,1.9,2469.344,13.28,0.028,251.6
2021-04-13T00:28:03,42.805,6.029,-0.025,-0.033,-0.01,108.0,106.0,103.0,13.4,1505.2,326.4,-0.8,1.8,2469.314,13.28,0.041,217.2
2021-04-13T00:31:03,42.805,6.029,-0.034,-0.039,-0.015,108.0,106.0,103.0,13.4,1505.2,325.2,-0.8,1.8,2469.331,13.28,0.051,221.1
2021-04-13T00:34:03,42.805,6.029,0.016,-0.031,0.006,107.0,107.0,104.0,13.4,1505.2,327.4,-0.7,1.8,2469.32,13.28,0.034,152.7
2021-04-13T00:37:03,42.805,6.029,-0.013,-0.04,-0.002,107.0,106.0,103.0,13.4,1505.2,329.1,-0.7,1.9,2469.305,13.28,0.042,198.0
2021-04-13T00:40:03,42.805,6.029,-0.036,-0.035,-0.008,106.0,106.0,103.0,13.3,1505.2,328.8,-0.8,1.8,2469.328,13.28,0.05,225.8
2021-04-13T00:43:03,42.805,6.029,-0.017,-0.045,-0.01,106.0,106.0,103.0,13.3,1505.2,325.8,-0.7,1.9,2469.306,13.28,0.048,200.7
2021-04-13T00:46:03,42.805,6.029,-0.014,-0.036,0.004,108.0,105.0,103.0,13.4,1505.2,327.6,-0.8,1.8,2469.314,13.28,0.038,201.2
2021-04-13T00:49:03,42.805,6.029,-0.009,-0.025,-0.023,106.0,106.0,102.0,13.3,1505.2,327.7,-0.7,1.8,2469.328,13.28,0.026,199.8
2021-04-13T00:52:03,42.805,6.029,-0.049,-0.024,-0.04,107.0,105.0,104.0,13.4,1505.2,327.0,-0.8,1.8,2469.301,13.28,0.054,243.9
2021-04-13T00:55:03,42.805,6.029,-0.022,-0.013,0.015,108.0,105.0,105.0,13.3,1505.2,326.8,-0.8,1.8,2469.312,13.28,0.025,239.4
2021-04-13T00:58:03,42.805,6.029,0.006,-0.024,-0.013,106.0,106.0,103.0,13.4,1505.2,327.7,-0.7,1.9,2469.329,13.28,0.024,166.0
2021-04-13T01:04:03,42.805,6.029,-0.04,-0.035,0.024,108.0,106.0,104.0,13.4,1505.2,326.7,-0.8,1.8,2469.329,13.28,0.053,228.8
2021-04-13T01:07:03,42.805,6.029,-0.041,-0.027,0.004,107.0,106.0,103.0,13.4,1505.2,328.7,-0.8,1.8,2469.326,13.28,0.049,236.6
2021-04-13T01:10:03,42.805,6.029,-0.014,-0.024,0.003,107.0,106.0,103.0,13.4,1505.2,326.9,-0.7,1.8,2469.313,13.28,0.027,210.3
2021-04-13T01:13:03,42.805,6.029,-0.014,-0.028,0.003,106.0,105.0,103.0,13.4,1505.2,324.2,-0.8,1.8,2469.32,13.28,0.031,206.6
2021-04-13T01:16:03,42.805,6.029,-0.015,-0.037,-0.046,107.0,105.0,104.0,13.4,1505.2,324.7,-0.8,1.9,2469.284,13.28,0.039,202.1
2021-04-13T01:19:03,42.805,6.029,-0.047,-0.033,0.002,106.0,106.0,104.0,13.4,1505.2,327.0,-0.7,1.8,2469.337,13.28,0.057,234.9
2021-04-13T01:22:03,42.805,6.029,-0.028,-0.026,-0.003,106.0,105.0,102.0,13.4,1505.2,326.7,-0.7,1.8,2469.341,13.28,0.038,227.1
2021-04-13T01:25:03,42.805,6.029,-0.02,-0.03,-0.007,107.0,106.0,102.0,13.4,1505.2,326.2,-0.8,1.8,2469.334,13.28,0.036,213.7
2021-04-13T01:28:03,42.805,6.029,-0.027,-0.026,0.014,107.0,106.0,102.0,13.4,1505.2,328.0,-0.8,1.8,2469.353,13.28,0.037,226.1
2021-04-13T01:31:03,42.805,6.029,-0.001,-0.018,-0.007,108.0,107.0,106.0,13.3,1505.2,327.3,-0.7,1.8,2469.383,13.28,0.018,183.2
2021-04-13T01:34:03,42.805,6.029,-0.008,-0.022,-0.011,107.0,109.0,103.0,13.4,1505.2,327.0,-0.7,1.8,2469.38,13.28,0.023,200.0
2021-04-13T01:37:03,42.805,6.029,-0.031,-0.018,-0.011,107.0,106.0,104.0,13.4,1505.2,324.0,-0.8,1.8,2469.402,13.28,0.035,239.9
2021-04-13T01:40:03,42.805,6.029,0.006,-0.017,0.005,106.0,107.0,103.0,13.4,1505.2,326.6,-0.7,1.8,2469.398,13.28,0.018,160.6
2021-04-13T01:43:03,42.805,6.029,-0.001,-0.047,-0.052,107.0,105.0,103.0,13.4,1505.2,323.7,-0.7,1.8,2469.467,13.28,0.047,181.2
2021-04-13T01:46:03,42.805,6.029,-0.01,-0.048,-0.003,106.0,106.0,102.0,13.3,1505.2,328.2,-0.8,1.8,2469.465,13.28,0.049,191.8
2021-04-13T01:49:03,42.805,6.029,-0.011,-0.029,0.025,106.0,105.0,103.0,13.4,1505.2,328.4,-0.8,1.8,2469.495,13.28,0.031,200.8
2021-04-13T01:52:03,42.805,6.029,0.001,-0.037,-0.01,107.0,105.0,104.0,13.3,1505.2,324.7,-0.8,1.8,2469.487,13.28,0.037,178.5
2021-04-13T01:55:03,42.805,6.029,-0.024,-0.014,-0.001,106.0,106.0,104.0,13.4,1505.2,326.5,-0.8,1.8,2469.543,13.28,0.027,239.7
2021-04-13T01:58:03,42.805,6.029,0.011,-0.026,-0.022,106.0,107.0,104.0,13.4,1505.2,327.6,-0.7,1.8,2469.513,13.28,0.028,157.1
2021-04-13T02:04:03,42.805,6.029,0.016,-0.039,-0.019,107.0,108.0,104.0,13.4,1505.2,328.0,-0.7,1.8,2469.574,13.28,0.042,157.7
2021-04-13T02:07:03,42.805,6.029,-0.006,-0.008,-0.006,107.0,107.0,104.0,13.3,1505.2,328.0,-0.7,1.8,2469.615,13.28,0.01,216.9
2021-04-13T02:10:03,42.805,6.029,-0.012,-0.032,-0.024,107.0,105.0,103.0,13.4,1505.2,328.0,-0.8,1.8,2469.568,13.28,0.034,200.6
2021-04-13T02:13:03,42.805,6.029,0.005,-0.02,-0.001,108.0,106.0,103.0,13.3,1505.2,327.3,-0.7,1.8,2469.574,13.28,0.02,166.0
2021-04-13T02:16:03,42.805,6.029,-0.024,-0.041,0.01,107.0,106.0,104.0,13.4,1505.2,327.9,-0.8,1.8,2469.621,13.28,0.047,210.3
2021-04-13T02:19:03,42.805,6.029,0.005,-0.029,-0.002,106.0,106.0,102.0,13.4,1505.2,324.0,-0.8,1.8,2469.616,13.28,0.029,170.2
2021-04-13T02:22:03,42.805,6.029,-0.016,-0.004,0.003,106.0,107.0,101.0,13.4,1505.2,325.9,-0.8,1.8,2469.68,13.28,0.016,256.0
2021-04-13T02:25:03,42.805,6.029,-0.034,-0.027,0.01,106.0,106.0,103.0,13.3,1505.2,327.2,-0.8,1.8,2469.655,13.28,0.043,231.5
2021-04-13T02:28:03,42.805,6.029,-0.011,-0.032,-0.016,106.0,107.0,104.0,13.4,1505.2,327.6,-0.7,1.8,2469.63,13.28,0.033,199.0
2021-04-13T02:31:03,42.805,6.029,-0.018,-0.024,-0.009,107.0,106.0,104.0,13.4,1505.2,326.5,-0.7,1.8,2469.654,13.28,0.03,216.9
2021-04-13T02:34:03,42.805,6.029,-0.011,-0.028,-0.017,108.0,108.0,103.0,13.4,1505.2,327.3,-0.8,1.8,2469.65,13.28,0.03,201.4
2021-04-13T02:37:03,42.805,6.029,0.002,-0.019,0.03,107.0,106.0,104.0,13.4,1505.2,323.4,-0.7,1.8,2469.69,13.28,0.019,174.0
2021-04-13T02:40:03,42.805,6.029,-0.036,-0.024,-0.043,108.0,106.0,103.0,13.4,1505.2,327.5,-0.8,1.8,2469.724,13.28,0.043,236.3
2021-04-13T02:43:03,42.805,6.029,-0.006,-0.038,0.019,107.0,108.0,104.0,13.4,1505.2,325.8,-0.8,1.8,2469.686,13.28,0.038,189.0
2021-04-13T02:46:03,42.805,6.029,0.0,-0.025,-0.005,107.0,108.0,103.0,13.4,1505.2,324.2,-0.7,1.8,2469.713,13.28,0.025,180.0
2021-04-13T02:49:03,42.805,6.029,0.009,-0.045,0.013,107.0,107.0,102.0,13.4,1505.2,326.1,-0.8,1.8,2469.723,13.28,0.045,168.7
2021-04-13T02:52:03,42.805,6.029,0.0,-0.01,0.019,106.0,107.0,102.0,13.4,1505.2,326.4,-0.8,1.8,2469.737,13.28,0.01,180.0
2021-04-13T02:55:03,42.805,6.029,0.028,-0.051,-0.017,107.0,106.0,102.0,13.3,1505.2,324.0,-0.8,1.8,2469.734,13.28,0.058,151.2
2021-04-13T02:58:03,42.805,6.029,-0.009,-0.037,0.031,106.0,106.0,103.0,13.4,1505.2,324.7,-0.7,1.8,2469.78,13.28,0.038,193.7
2021-04-13T03:04:03,42.805,6.029,-0.003,-0.022,0.007,106.0,107.0,102.0,13.4,1505.2,325.6,-0.7,1.8,2469.78,13.28,0.022,187.8
2021-04-13T03:07:03,42.805,6.029,-0.019,-0.031,0.004,108.0,106.0,103.0,13.4,1505.2,327.0,-0.8,1.8,2469.757,13.28,0.036,211.5
2021-04-13T03:10:03,42.805,6.029,0.0,-0.014,-0.023,107.0,105.0,103.0,13.4,1505.2,326.9,-0.8,1.8,2469.785,13.28,0.014,180.0
2021-04-13T03:13:03,42.805,6.029,-0.006,-0.025,0.001,108.0,106.0,103.0,13.4,1505.2,325.4,-0.7,1.8,2469.795,13.28,0.025,193.5
2021-04-13T03:16:03,42.805,6.029,0.03,-0.021,-0.048,107.0,106.0,103.0,13.4,1505.2,324.8,-0.8,1.8,2469.803,13.28,0.036,125.0
2021-04-13T03:19:03,42.805,6.029,-0.004,-0.036,0.001,106.0,107.0,104.0,13.4,1505.2,325.7,-0.8,1.8,2469.807,13.28,0.036,186.3
2021-04-13T03:22:03,42.805,6.029,0.002,-0.031,-0.025,107.0,106.0,104.0,13.4,1505.2,326.9,-0.7,1.8,2469.805,13.28,0.031,176.3
2021-04-13T03:25:03,42.805,6.029,0.012,-0.032,0.0,108.0,106.0,102.0,13.4,1505.2,326.4,-0.7,1.8,2469.803,13.28,0.034,159.4
2021-04-13T03:28:03,42.805,6.029,-0.001,-0.021,-0.004,106.0,107.0,103.0,13.3,1505.2,326.1,-0.8,1.9,2469.834,13.28,0.021,182.7
2021-04-13T03:31:03,42.805,6.029,0.018,-0.034,-0.028,105.0,106.0,103.0,13.4,1505.2,327.2,-0.8,1.8,2469.807,13.28,0.038,152.1
2021-04-13T03:34:03,42.805,6.029,0.009,-0.031,-0.028,106.0,106.0,103.0,13.4,1505.2,325.5,-0.8,1.9,2469.807,13.28,0.032,163.8
2021-04-13T03:37:03,42.805,6.029,0.015,-0.039,-0.01,106.0,106.0,104.0,13.4,1505.2,327.8,-0.7,1.8,2469.872,13.28,0.041,159.0
2021-04-13T03:40:03,42.805,6.029,0.019,-0.036,-0.021,107.0,107.0,104.0,13.4,1505.2,327.3,-0.7,1.9,2469.868,13.28,0.04,152.2
2021-04-13T03:43:03,42.805,6.029,0.037,-0.013,0.006,107.0,106.0,104.0,13.4,1505.2,323.5,-0.7,1.8,2469.852,13.28,0.039,109.4
2021-04-13T03:46:03,42.805,6.029,0.022,-0.05,-0.019,107.0,105.0,104.0,13.4,1505.2,325.2,-0.7,1.8,2469.866,13.28,0.054,156.3
2021-04-13T03:49:03,42.805,6.029,0.026,-0.026,0.007,106.0,106.0,104.0,13.4,1505.2,327.4,-0.8,1.8,2469.871,13.28,0.036,135.0
2021-04-13T03:52:03,42.805,6.029,0.012,-0.037,-0.001,107.0,106.0,103.0,13.3,1505.2,327.3,-0.7,1.8,2469.899,13.28,0.038,162.0
2021-04-13T03:55:03,42.805,6.029,0.031,-0.027,-0.01,106.0,105.0,102.0,13.3,1505.2,324.8,-0.7,1.8,2469.878,13.28,0.041,131.1
2021-04-13T03:58:03,42.805,6.029,0.016,-0.029,-0.024,107.0,107.0,103.0,13.4,1505.2,325.5,-0.8,1.8,2469.876,13.28,0.033,151.1
2021-04-13T04:04:03,42.805,6.029,-0.006,-0.055,-0.014,105.0,105.0,102.0,13.4,1505.2,325.9,-0.8,1.8,2469.926,13.28,0.055,186.2
2021-04-13T04:07:03,42.805,6.029,0.01,-0.032,-0.001,106.0,105.0,103.0,13.4,1505.2,325.5,-0.7,1.8,2469.906,13.28,0.033,162.6
2021-04-13T04:10:03,42.805,6.029,0.016,-0.056,-0.004,108.0,106.0,102.0,13.4,1505.2,325.4,-0.8,1.8,2469.887,13.28,0.058,164.1
2021-04-13T04:13:03,42.805,6.029,0.009,-0.039,-0.002,108.0,106.0,103.0,13.3,1505.2,326.1,-0.8,1.9,2469.923,13.28,0.04,167.0
2021-04-13T04:16:03,42.805,6.029,0.014,-0.017,-0.026,107.0,107.0,103.0,13.4,1505.2,326.0,-0.8,1.8,2469.911,13.28,0.022,140.5
2021-04-13T04:19:03,42.805,6.029,0.009,-0.029,-0.017,108.0,107.0,102.0,13.3,1505.2,323.9,-0.7,1.8,2469.907,13.28,0.03,162.8
2021-04-13T04:22:03,42.805,6.029,0.001,-0.042,0.008,108.0,106.0,103.0,13.3,1505.2,328.3,-0.8,1.8,2469.919,13.28,0.042,178.6
2021-04-13T04:25:03,42.805,6.029,0.0,-0.068,-0.019,106.0,106.0,103.0,13.3,1505.2,324.9,-0.8,1.9,2469.928,13.28,0.067,180.0
2021-04-13T04:28:03,42.805,6.029,0.013,-0.042,-0.032,107.0,105.0,102.0,13.3,1505.2,326.9,-0.8,1.8,2469.899,13.28,0.043,162.8
2021-04-13T04:31:03,42.805,6.029,0.01,-0.047,-0.008,106.0,106.0,103.0,13.4,1505.2,326.1,-0.8,1.8,2469.887,13.28,0.048,168.0
2021-04-13T04:34:03,42.805,6.029,0.017,-0.033,0.008,108.0,105.0,104.0,13.4,1505.2,323.5,-0.8,1.8,2469.889,13.28,0.037,152.7
2021-04-13T04:37:03,42.805,6.029,0.031,-0.054,-0.001,107.0,106.0,103.0,13.3,1505.2,324.1,-0.7,1.8,2469.877,13.28,0.062,150.1
2021-04-13T04:40:03,42.805,6.029,0.01,-0.04,-0.01,106.0,106.0,103.0,13.4,1505.2,328.9,-0.7,1.8,2469.856,13.28,0.041,166.0
2021-04-13T04:43:03,42.805,6.029,0.028,-0.024,0.039,109.0,106.0,104.0,13.4,1505.2,325.6,-0.7,1.8,2469.873,13.28,0.036,130.6
2021-04-13T04:46:03,42.805,6.029,0.017,-0.028,-0.003,106.0,106.0,104.0,13.3,1505.2,327.6,-0.8,1.8,2469.854,13.28,0.032,148.7
2021-04-13T04:49:03,42.805,6.029,0.029,-0.052,0.012,107.0,105.0,104.0,13.4,1505.2,326.0,-0.8,1.8,2469.855,13.28,0.059,150.9
2021-04-13T04:52:03,42.805,6.029,0.004,-0.057,-0.029,107.0,107.0,103.0,13.4,1505.2,326.3,-0.7,1.8,2469.861,13.28,0.057,176.0
2021-04-13T04:55:03,42.805,6.029,0.016,-0.045,-0.014,106.0,105.0,103.0,13.3,1505.2,326.3,-0.8,1.8,2469.84,13.28,0.047,160.4
2021-04-13T04:58:03,42.805,6.029,0.018,-0.043,-0.009,105.0,106.0,102.0,13.4,1505.2,327.6,-0.8,1.8,2469.832,13.28,0.046,157.3
2021-04-13T05:04:03,42.805,6.029,-0.017,-0.042,-0.013,106.0,106.0,103.0,13.3,1505.2,326.4,-0.8,1.9,2469.81,13.28,0.045,202.0
2021-04-13T05:07:03,42.805,6.029,0.03,-0.045,-0.007,107.0,107.0,104.0,13.3,1505.2,324.0,-0.8,1.8,2469.786,13.28,0.054,146.3
2021-04-13T05:10:03,42.805,6.029,0.009,-0.043,-0.012,107.0,106.0,103.0,13.4,1505.2,323.8,-0.8,1.8,2469.785,13.28,0.043,168.2
2021-04-13T05:13:03,42.805,6.029,0.013,-0.048,0.005,106.0,105.0,103.0,13.4,1505.2,324.2,-0.7,1.8,2469.758,13.28,0.049,164.8
2021-04-13T05:16:03,42.805,6.029,0.014,-0.034,-0.003,107.0,106.0,104.0,13.3,1505.2,326.1,-0.7,1.9,2469.761,13.28,0.036,157.6
2021-04-13T05:19:03,42.805,6.029,0.029,-0.035,0.028,107.0,105.0,104.0,13.3,1505.2,324.2,-0.8,1.8,2469.709,13.28,0.045,140.4
2021-04-13T05:22:03,42.805,6.029,0.01,-0.035,0.017,108.0,106.0,104.0,13.3,1505.2,328.5,-0.8,1.8,2469.716,13.28,0.036,164.1
2021-04-13T05:25:03,42.805,6.029,0.006,-0.035,-0.004,108.0,104.0,105.0,13.4,1505.2,327.8,-0.8,1.8,2469.718,13.28,0.035,170.3
2021-04-13T05:28:03,42.805,6.029,0.017,-0.058,-0.004,106.0,107.0,104.0,13.4,1505.2,325.7,-0.8,1.8,2469.714,13.28,0.06,163.7
2021-04-13T05:31:03,42.805,6.029,0.016,-0.07,0.024,107.0,105.0,103.0,13.4,1505.2,328.4,-0.7,1.8,2469.664,13.28,0.071,167.1
2021-04-13T05:34:03,42.805,6.029,0.029,-0.066,-0.01,106.0,105.0,104.0,13.3,1505.2,324.4,-0.8,1.8,2469.677,13.28,0.072,156.3
2021-04-13T05:37:03,42.805,6.029,0.018,-0.021,0.003,106.0,107.0,102.0,13.3,1505.2,324.8,-0.8,1.8,2469.705,13.28,0.027,139.4
2021-04-13T05:40:03,42.805,6.029,0.008,-0.036,-0.006,108.0,106.0,102.0,13.4,1505.2,324.5,-0.8,1.8,2469.708,13.28,0.036,167.5
2021-04-13T05:43:03,42.805,6.029,0.014,-0.045,-0.002,108.0,107.0,103.0,13.3,1505.2,326.3,-0.8,1.8,2469.642,13.28,0.047,162.7
2021-04-13T05:46:03,42.805,6.029,0.022,-0.049,0.0,108.0,107.0,103.0,13.4,1505.2,325.5,-0.8,1.8,2469.65,13.28,0.053,155.8
2021-04-13T05:49:03,42.805,6.029,0.038,-0.035,-0.021,107.0,106.0,103.0,13.3,1505.2,327.6,-0.7,1.8,2469.694,13.28,0.051,132.6
2021-04-13T05:52:03,42.805,6.029,0.026,-0.06,-0.024,106.0,106.0,103.0,13.3,1505.2,327.2,-0.7,1.8,2469.644,13.28,0.065,156.6
2021-04-13T05:55:03,42.805,6.029,0.0,-0.06,-0.008,107.0,108.0,104.0,13.4,1505.2,327.0,-0.8,1.8,2469.638,13.28,0.06,180.0
2021-04-13T05:58:03,42.805,6.029,0.022,-0.049,-0.007,106.0,105.0,103.0,13.4,1505.2,325.2,-0.8,1.8,2469.635,13.28,0.053,155.8
2021-04-13T06:04:03,42.805,6.029,0.001,-0.047,-0.013,106.0,106.0,104.0,13.4,1505.2,327.9,-0.8,1.8,2469.605,13.28,0.047,178.8
2021-04-13T06:07:03,42.805,6.029,0.013,-0.053,-0.012,107.0,106.0,103.0,13.4,1505.2,327.3,-0.8,1.8,2469.578,13.28,0.054,166.2
2021-04-13T06:10:03,42.805,6.029,0.01,-0.055,-0.032,107.0,106.0,103.0,13.3,1505.2,327.0,-0.8,1.9,2469.587,13.28,0.055,169.7
2021-04-13T06:13:03,42.805,6.029,0.024,-0.052,-0.015,107.0,106.0,104.0,13.3,1505.2,326.0,-0.8,1.8,2469.502,13.28,0.057,155.2
2021-04-13T06:16:03,42.805,6.029,0.019,-0.041,0.018,107.0,106.0,102.0,13.4,1505.2,327.3,-0.8,1.8,2469.497,13.28,0.045,155.1
2021-04-13T06:19:03,42.805,6.029,0.023,-0.032,-0.001,106.0,106.0,103.0,13.4,1505.2,326.8,-0.7,1.8,2469.466,13.28,0.039,144.3
2021-04-13T06:22:03,42.805,6.029,-0.001,-0.047,-0.022,108.0,106.0,103.0,13.4,1505.2,323.9,-0.8,1.9,2469.413,13.28,0.047,181.2
2021-04-13T06:25:03,42.805,6.029,0.011,-0.055,-0.045,106.0,106.0,104.0,13.4,1505.2,326.6,-0.8,1.8,2469.458,13.28,0.056,168.7
2021-04-13T06:28:03,42.805,6.029,0.023,-0.064,-0.009,105.0,107.0,104.0,13.4,1505.2,326.1,-0.7,1.8,2469.413,13.28,0.068,160.2
2021-04-13T06:31:03,42.805,6.029,0.046,-0.043,-0.002,106.0,107.0,103.0,13.3,1505.2,323.8,-0.7,1.8,2469.433,13.28,0.062,133.1
2021-04-13T06:34:03,42.805,6.029,0.033,-0.064,-0.028,105.0,107.0,103.0,13.4,1505.2,327.4,-0.8,1.8,2469.386,13.28,0.072,152.7
2021-04-13T06:37:03,42.805,6.029,0.032,-0.047,0.002,108.0,107.0,104.0,13.3,1505.2,325.8,-0.7,1.8,2469.325,13.28,0.056,145.8
2021-04-13T06:40:03,42.805,6.029,0.019,-0.064,0.028,109.0,106.0,104.0,13.4,1505.2,326.8,-0.7,1.8,2469.291,13.28,0.066,163.5
2021-04-13T06:43:03,42.805,6.029,0.007,-0.055,-0.008,106.0,105.0,103.0,13.3,1505.2,324.9,-0.7,1.8,2469.27,13.28,0.055,172.7
2021-04-13T06:46:03,42.805,6.029,0.012,-0.063,-0.025,107.0,106.0,104.0,13.4,1505.2,327.7,-0.7,1.8,2469.308,13.28,0.064,169.2
2021-04-13T06:49:03,42.805,6.029,0.022,-0.056,-0.028,107.0,107.0,102.0,13.4,1505.2,327.4,-0.7,1.8,2469.306,13.28,0.06,158.6
2021-04-13T06:52:03,42.805,6.029,0.009,-0.046,-0.005,106.0,106.0,103.0,13.4,1505.2,326.7,-0.8,1.8,2469.252,13.28,0.046,168.9
2021-04-13T06:55:03,42.805,6.029,0.016,-0.043,-0.013,106.0,107.0,103.0,13.4,1505.2,327.6,-0.7,1.8,2469.259,13.28,0.045,159.6
2021-04-13T06:58:03,42.805,6.029,0.012,-0.038,-0.013,107.0,106.0,103.0,13.4,1505.2,327.4,-0.8,1.9,2469.27,13.28,0.039,162.5
2021-04-13T07:04:03,42.805,6.029,0.028,-0.049,-0.001,107.0,106.0,104.0,13.3,1505.2,324.4,-0.7,1.8,2469.227,13.28,0.056,150.3
2021-04-13T07:07:03,42.805,6.029,-0.011,-0.056,-0.019,106.0,105.0,103.0,13.4,1505.2,326.4,-0.8,1.8,2469.194,13.28,0.057,191.1
2021-04-13T07:10:03,42.805,6.029,0.037,-0.077,0.0,106.0,107.0,103.0,13.4,1505.2,327.5,-0.8,1.8,2469.185,13.28,0.085,154.3
2021-04-13T07:13:03,42.805,6.029,0.025,-0.053,0.012,107.0,106.0,103.0,13.3,1505.2,327.4,-0.8,1.8,2469.152,13.28,0.058,154.7
2021-04-13T07:16:03,42.805,6.029,0.03,-0.067,-0.009,107.0,106.0,103.0,13.4,1505.2,323.5,-0.8,1.8,2469.123,13.28,0.073,155.9
2021-04-13T07:19:03,42.805,6.029,0.015,-0.049,-0.006,107.0,107.0,104.0,13.4,1505.2,324.9,-0.7,1.8,2469.131,13.28,0.051,163.0
2021-04-13T07:22:03,42.805,6.029,0.022,-0.033,0.007,107.0,105.0,104.0,13.3,1505.2,324.7,-0.8,1.8,2469.113,13.28,0.039,146.3
2021-04-13T07:25:03,42.805,6.029,0.024,-0.05,0.0,106.0,106.0,104.0,13.4,1505.2,325.7,-0.8,1.8,2469.077,13.28,0.055,154.4
2021-04-13T07:28:03,42.805,6.029,0.032,-0.039,-0.02,107.0,107.0,103.0,13.4,1505.2,325.4,-0.7,1.8,2469.054,13.28,0.05,140.6
2021-04-13T07:31:03,42.805,6.029,0.012,-0.048,0.004,106.0,106.0,103.0,13.3,1505.2,325.2,-0.7,1.8,2469.052,13.28,0.049,166.0
2021-04-13T07:34:03,42.805,6.029,0.025,-0.052,-0.042,106.0,106.0,103.0,13.4,1505.2,326.4,-0.7,1.8,2469.026,13.28,0.057,154.3
2021-04-13T07:37:03,42.805,6.029,0.008,-0.046,0.012,106.0,105.0,103.0,13.4,1505.2,325.2,-0.7,1.8,2468.991,13.28,0.046,170.1
2021-04-13T07:40:03,42.805,6.029,0.008,-0.051,-0.029,106.0,106.0,103.0,13.3,1505.2,327.4,-0.8,1.8,2469.026,13.28,0.051,171.1
2021-04-13T07:43:03,42.805,6.029,0.042,-0.051,-0.049,106.0,107.0,103.0,13.3,1505.2,324.5,-0.7,1.8,2468.964,13.28,0.066,140.5
2021-04-13T07:46:03,42.805,6.029,-0.003,-0.058,-0.026,107.0,105.0,103.0,13.3,1505.2,327.0,-0.7,1.8,2468.931,13.28,0.058,183.0
2021-04-13T07:49:03,42.805,6.029,0.005,-0.049,-0.015,105.0,106.0,103.0,13.4,1505.2,324.9,-0.7,1.8,2468.936,13.28,0.049,174.2
2021-04-13T07:52:03,42.805,6.029,0.03,-0.073,0.025,106.0,107.0,103.0,13.4,1505.2,324.5,-0.7,1.8,2468.937,13.28,0.078,157.7
2021-04-13T07:55:03,42.805,6.029,0.017,-0.057,-0.025,106.0,106.0,103.0,13.4,1505.2,327.2,-0.8,1.8,2468.949,13.28,0.059,163.4
2021-04-13T07:58:03,42.805,6.029,0.0,-0.047,-0.03,106.0,106.0,103.0,13.4,1505.2,327.5,-0.8,1.8,2468.866,13.28,0.047,180.0
2021-04-13T08:04:03,42.805,6.029,0.023,-0.068,-0.019,106.0,106.0,104.0,13.3,1505.2,324.2,-0.7,1.9,2468.853,13.28,0.071,161.3
2021-04-13T08:07:03,42.805,6.029,0.009,-0.042,-0.013,106.0,106.0,103.0,13.4,1505.2,327.5,-0.7,1.8,2468.844,13.28,0.042,167.9
2021-04-13T08:10:03,42.805,6.029,-0.018,-0.052,0.019,107.0,106.0,102.0,13.4,1505.2,325.1,-0.8,1.8,2468.853,13.28,0.055,199.1
2021-04-13T08:13:03,42.805,6.029,0.019,-0.073,-0.046,107.0,107.0,104.0,13.3,1505.2,327.7,-0.8,1.8,2468.804,13.28,0.075,165.4
2021-04-13T08:16:03,42.805,6.029,-0.001,-0.063,-0.004,107.0,106.0,104.0,13.4,1505.2,328.3,-0.8,1.8,2468.757,13.28,0.063,180.9
2021-04-13T08:19:03,42.805,6.029,0.007,-0.049,0.024,106.0,106.0,103.0,13.4,1505.2,328.1,-0.8,1.8,2468.812,13.28,0.049,171.9
2021-04-13T08:22:03,42.805,6.029,0.009,-0.063,0.002,106.0,106.0,103.0,13.4,1505.2,328.1,-0.8,1.8,2468.753,13.28,0.063,171.9
2021-04-13T08:25:03,42.805,6.029,0.006,-0.064,-0.033,105.0,106.0,103.0,13.4,1505.2,328.6,-0.7,1.8,2468.778,13.28,0.064,174.6
2021-04-13T08:28:03,42.805,6.029,0.023,-0.066,0.003,106.0,106.0,103.0,13.4,1505.2,325.0,-0.7,1.8,2468.727,13.28,0.069,160.8
2021-04-13T08:31:03,42.805,6.029,-0.011,-0.06,0.0,108.0,105.0,104.0,13.4,1505.2,325.0,-0.8,1.8,2468.707,13.28,0.06,190.4
2021-04-13T08:34:03,42.805,6.029,0.017,-0.045,0.0,107.0,107.0,103.0,13.4,1505.2,326.2,-0.7,1.8,2468.705,13.28,0.048,159.3
2021-04-13T08:37:03,42.805,6.029,0.026,-0.053,-0.021,106.0,107.0,104.0,13.3,1505.2,325.3,-0.7,1.8,2468.669,13.28,0.059,153.9
2021-04-13T08:40:03,42.805,6.029,0.013,-0.073,-0.022,107.0,105.0,102.0,13.3,1505.2,326.9,-0.7,1.8,2468.672,13.28,0.074,169.9
2021-04-13T08:43:03,42.805,6.029,0.004,-0.055,-0.019,107.0,105.0,103.0,13.4,1505.2,327.5,-0.7,1.8,2468.658,13.28,0.055,175.8
2021-04-13T08:46:03,42.805,6.029,0.014,-0.076,0.009,105.0,104.0,103.0,13.4,1505.2,327.7,-0.8,1.8,2468.647,13.28,0.077,169.6
2021-04-13T08:49:03,42.805,6.029,0.018,-0.066,-0.001,105.0,105.0,103.0,13.4,1505.2,324.9,-0.8,1.8,2468.66,13.28,0.068,164.7
2021-04-13T08:52:03,42.805,6.029,-0.007,-0.053,-0.018,106.0,105.0,105.0,13.4,1505.2,328.9,-0.8,1.8,2468.601,13.28,0.053,187.5
2021-04-13T08:55:03,42.805,6.029,0.0,-0.07,0.002,106.0,105.0,102.0,13.4,1505.2,329.0,-0.7,1.8,2468.613,13.28,0.069,180.0
2021-04-13T08:58:03,42.805,6.029,-0.003,-0.092,0.0,105.0,105.0,103.0,13.3,1505.2,325.2,-0.8,1.8,2468.607,13.28,0.092,181.9
2021-04-13T09:04:03,42.805,6.029,-0.009,-0.042,-0.004,107.0,105.0,103.0,13.4,1505.2,327.0,-0.8,1.8,2468.571,13.28,0.042,192.1
2021-04-13T09:07:03,42.805,6.029,0.012,-0.059,-0.004,106.0,105.0,103.0,13.4,1505.2,327.5,-0.7,1.8,2468.561,13.28,0.06,168.5
2021-04-13T09:10:03,42.805,6.029,0.002,-0.059,-0.013,107.0,106.0,103.0,13.4,1505.2,328.8,-0.8,1.9,2468.534,13.28,0.059,178.1
2021-04-13T09:13:03,42.805,6.029,-0.002,-0.061,0.009,106.0,105.0,102.0,13.3,1505.2,325.8,-0.7,1.8,2468.533,13.28,0.061,181.9
2021-04-13T09:16:03,42.805,6.029,-0.008,-0.066,0.006,106.0,105.0,102.0,13.3,1505.2,325.1,-0.8,1.9,2468.494,13.28,0.066,186.9
2021-04-13T09:19:03,42.805,6.029,0.004,-0.073,-0.019,106.0,105.0,102.0,13.4,1505.2,326.9,-0.8,1.8,2468.516,13.28,0.073,176.9
2021-04-13T09:22:03,42.805,6.029,0.005,-0.068,0.006,106.0,106.0,103.0,13.4,1505.2,327.3,-0.8,1.8,2468.508,13.28,0.068,175.8
2021-04-13T09:25:03,42.805,6.029,-0.004,-0.064,0.007,106.0,105.0,103.0,13.4,1505.2,326.1,-0.8,1.8,2468.454,13.28,0.064,183.6
2021-04-13T09:28:03,42.805,6.029,-0.003,-0.07,-0.023,105.0,106.0,102.0,13.4,1505.2,327.3,-0.8,1.8,2468.463,13.28,0.07,182.4
2021-04-13T09:31:03,42.805,6.029,-0.024,-0.059,0.011,105.0,105.0,102.0,13.4,1505.2,325.8,-0.8,1.8,2468.423,13.28,0.063,202.1
2021-04-13T09:34:03,42.805,6.029,-0.006,-0.082,-0.018,106.0,104.0,103.0,13.4,1505.2,327.2,-0.7,1.8,2468.379,13.28,0.082,184.2
2021-04-13T09:37:03,42.805,6.029,0.013,-0.076,-0.002,105.0,105.0,103.0,13.3,1505.2,325.9,-0.7,1.8,2468.42,13.28,0.077,170.3
2021-04-13T09:40:03,42.805,6.029,0.0,-0.076,0.005,106.0,104.0,103.0,13.4,1505.2,326.7,-0.8,1.8,2468.402,13.28,0.075,180.0
2021-04-13T09:43:03,42.805,6.029,-0.005,-0.061,-0.013,106.0,106.0,102.0,13.3,1505.2,325.2,-0.8,1.8,2468.361,13.28,0.061,184.7
2021-04-13T09:46:03,42.805,6.029,-0.015,-0.065,-0.015,105.0,104.0,103.0,13.4,1505.2,323.7,-0.7,1.8,2468.31,13.28,0.066,193.0
2021-04-13T09:49:03,42.805,6.029,-0.025,-0.072,-0.018,105.0,105.0,103.0,13.3,1505.2,327.4,-0.7,1.8,2468.333,13.28,0.076,199.1
2021-04-13T09:52:03,42.805,6.029,0.008,-0.064,-0.013,107.0,106.0,103.0,13.4,1505.2,327.7,-0.7,1.8,2468.3,13.28,0.064,172.9